Kodiak, AK

11:00 PM AKST on November 22, 2017 (GMT -0900)
Kodiak

Weather History for PADQ - October, 2013

Change the Weather History Date:

Tuesday, October 1, 2013

  Actual Average Record
Temperature  
Mean Temperature 41 °F 45 °F  
Max Temperature 52 °F 51 °F 61 °F (1937)
Min Temperature 30 °F 39 °F 25 °F (1972)
Degree Days  
Heating Degree Days 24 20  
Month to date heating degree days 24 20  
Since 1 July heating degree days 943 1121  
Cooling Degree Days 0 0  
Month to date cooling degree days 0 0  
Year to date cooling degree days 6 1  
Moisture  
Dew Point 28 °F    
Average Humidity 0    
Maximum Humidity 0    
Minimum Humidity 0    
Precipitation  
Precipitation 0.00 in 0.29 in 3.52 in (2003)
Month to date precipitation 0.00 0.29  
Year to date precipitation 47.45 54.43  
Snow  
Snow 0.00 in 0.00 in - ()
Month to date snowfall 0.0 0.0  
Since 1 July snowfall 0.0 0.0  
Since 1 September snowfall 0.0 0.0  
Snow Depth 0.00 in    
Sea Level Pressure  
Sea Level Pressure 29.77 in    
Wind  
Wind Speed 12 mph (WNW)    
Max Wind Speed 24 mph    
Max Gust Speed 30 mph    
Visibility 10 miles    
Events      
T = Trace of Precipitation, MM = Missing Value Source: NWS Daily Summary

Daily Weather History Graph

Daily Weather History Graph

Search for Another Location

Airport or City:

Trip Planner

Search our weather history database for the weather conditions in past years. The results will help you decide how hot, cold, wet, or windy it might be!

Date:

Astronomy

Oct. 01, 2013 Rise Set
Actual Time 8:15 AM AKDT 7:42 PM AKDT
Civil Twilight 7:36 AM AKDT 8:21 PM AKDT
Nautical Twilight 6:50 AM AKDT 9:06 PM AKDT
Astronomical Twilight 6:03 AM AKDT 9:53 PM AKDT
Moon 4:25 AM AKDT (10/1) 6:18 PM AKDT (10/1)
Length of Visible Light 12h 45m
Length of Day
11h 27m
Waning Crescent, 11% of the Moon is Illuminated
Oct 1
Waning Crescent
Oct 4
New
Oct 11
First Quarter
Oct 18
Full
Oct 26
Last Quarter

Hourly Weather History & Observations

Time (AKDT) Temp. Windchill Dew Point Humidity Pressure Visibility Wind Dir Wind Speed Gust Speed Precip Events Conditions
12:53 AM 42.1 °F 35.2 °F 25.0 °F 51% 29.70 in 10.0 mi NW 12.7 mph 21.9 mph N/A   Mostly Cloudy
1:53 AM 42.1 °F 33.6 °F 25.0 °F 51% 29.71 in 10.0 mi WNW 18.4 mph 26.5 mph N/A   Mostly Cloudy
2:53 AM 42.1 °F 34.2 °F 25.0 °F 51% 29.71 in 10.0 mi WNW 16.1 mph 24.2 mph N/A   Mostly Cloudy
3:53 AM 42.1 °F 34.2 °F 24.1 °F 49% 29.71 in 10.0 mi NW 16.1 mph 24.2 mph N/A   Clear
4:53 AM 42.1 °F 34.2 °F 27.0 °F 55% 29.73 in 10.0 mi WNW 16.1 mph 24.2 mph N/A   Clear
5:53 AM 41.0 °F 32.2 °F 25.0 °F 53% 29.74 in 10.0 mi WNW 18.4 mph 25.3 mph N/A   Clear
6:53 AM 41.0 °F 31.9 °F 25.0 °F 53% 29.74 in 10.0 mi WNW 19.6 mph 28.8 mph N/A   Clear
7:53 AM 41.0 °F 32.2 °F 27.0 °F 57% 29.75 in 10.0 mi WNW 18.4 mph 27.6 mph N/A   Clear
8:53 AM 42.1 °F 33.3 °F 27.0 °F 55% 29.75 in 10.0 mi WNW 19.6 mph 25.3 mph N/A   Clear
9:53 AM 44.1 °F 37.1 °F 27.0 °F 51% 29.76 in 10.0 mi WNW 15.0 mph 21.9 mph N/A   Clear
10:53 AM 46.0 °F 39.6 °F 26.1 °F 46% 29.77 in 10.0 mi WNW 15.0 mph 19.6 mph N/A   Clear
11:53 AM 48.0 °F - 27.0 °F 44% 29.78 in 10.0 mi West 15.0 mph - N/A   Partly Cloudy
12:53 PM 48.9 °F - 26.1 °F 41% 29.80 in 10.0 mi WNW 11.5 mph - N/A   Partly Cloudy
1:53 PM 50.0 °F - 26.1 °F 39% 29.80 in 10.0 mi West 11.5 mph - N/A   Partly Cloudy
2:53 PM 51.1 °F - 26.1 °F 38% 29.79 in 10.0 mi NW 9.2 mph - N/A   Scattered Clouds
3:53 PM 48.9 °F - 34.0 °F 56% 29.79 in 10.0 mi ESE 10.4 mph - N/A   Partly Cloudy
4:53 PM 48.0 °F - 33.1 °F 56% 29.79 in 10.0 mi ESE 9.2 mph - N/A   Scattered Clouds
5:53 PM 48.0 °F - 34.0 °F 58% 29.79 in 10.0 mi East 5.8 mph - N/A   Scattered Clouds
6:53 PM 46.9 °F - 34.0 °F 61% 29.79 in 10.0 mi North 3.5 mph - N/A   Scattered Clouds
7:53 PM 41.0 °F 37.1 °F 32.0 °F 70% 29.79 in 10.0 mi WNW 5.8 mph - N/A   Scattered Clouds
8:53 PM 37.0 °F 33.3 °F 30.9 °F 79% 29.79 in 10.0 mi West 4.6 mph - N/A   Scattered Clouds
9:53 PM 34.0 °F 31.0 °F 30.0 °F 85% 29.79 in 10.0 mi West 3.5 mph - N/A   Mostly Cloudy
10:53 PM 32.0 °F 27.5 °F 28.9 °F 88% 29.80 in 10.0 mi WNW 4.6 mph - N/A   Mostly Cloudy
11:53 PM 30.9 °F 25.2 °F 28.0 °F 89% 29.80 in 10.0 mi West 5.8 mph - N/A   Scattered Clouds